ARIANE 2 DEB, 26727

Orbit data source: Space-Track

ARIANE 2 DEB, 26727 is space debris in HEO originally from a launch on Fri, 27 Jan 1989 UTC launched from the French Guiana (FRGUI). Debris objects in space refer to the collection of defunct objects orbiting the Earth. Examples of debris include non-operational satellites, rocket bodies, and fragments generated from explosions, collisions, or faulty payload assembly.

Loading next visibility...
Identifier
26727, 1989-006E
Orbit
HEO
Country
Flag of FRFR
Related business
Manufacturer
EADS/LV
Mission
Spacecraft
Bus & Motor
Unknown
Mass
Unknown
Launch date (UTC)
1989-01-27 (37 years ago)
Launch vehicle
Unknown
Launch site
French Guiana (FRGUI)
Object type
Payload
Rocket body
Debris
Shape & HBR
Unknown shape, 0.3 m
Radar Cross Section
Medium (>0.1 m² and <1 m²)

Expand to show TLE details & history
Last TLE update: 4 weeks ago

TLE from 4 weeks ago
0 ARIANE 2 DEB
1 26727U 89006E   25267.84522595  .00000018  00000-0  16881-2 0  9994
2 26727   7.9507 202.1474 7145122 189.5648 221.0662  2.28876124205610
Epoch: 2025-09-24T20:17Z
TLE epoch observation values (Epoch: 2025-09-24T20:17:07.522Z)
Latitude
2.66342°
Longitude
-86.71665°
Altitude
33,787.333 km
Speed
1.86 km/s
True Right ascension
14h 45m 55s
True Declination
2° 39' 38"
Sunlit
Object was in daylight at epoch
Visualization orbit readout
Latitude
Unknown
Longitude
Unknown
Altitude
Unknown
Speed
Unknown
Apparent Right ascension
Unknown
Apparent Declination
Unknown
Sunlit
N/A
Visualization observer readout
Local Sidereal Time
15:35:34
Azimuth
Unknown
Elevation
Unknown
Doppler factor
Unknown
Orbital elements
Apogee altitude
35,331.276 km
Perigee altitude
567.004 km
Semi-major axis
24,327.277 km
Eccentricity
0.71451
Inclination
7.9507°
RAAN
202.1474°
Arg. of periapsis
189.5648°
True anomaly
190.02074°
Mean anomaly
221.0662°
Eccentric anomaly
204.25119°
Mean motion
0.57201 °/min
Orbital period
629.36 mins
BSTAR
0.0016881
Loading maneuver chart data...
Computing Atmospheric mass density...
Loading historical data...
Loading historical data...
Loading historical data...
Loading historical data...
Loading historical data...
Loading historical data...
Loading historical data...

Documentation

Showing up to 5 results
|